DW5342 Weather Reports


time (UTC)temp
F
wind
direction
speed
knots
gust
knots
rain 1hr
in
rain 24hr
in
rain mn
in
humidity
%
barometer
mb
20240518194529 69 75 2.6 7.0 0.00 0.34 0.34 100 1011.2
20240518193017 70 72 2.6 7.0 0.03 0.34 0.34 100 1011.4
20240518191516 69 61 3.5 8.7 0.03 0.34 0.34 100 1011.6
20240518190017 69 83 3.5 7.0 0.03 0.34 0.34 100 1011.6
20240518184506 69 98 1.7 7.0 0.03 0.34 0.34 100 1011.7
20240518183106 69 73 3.5 7.0 0.00 0.31 0.31 100 1012.0
20240518181556 69 89 3.5 8.7 0.00 0.31 0.31 100 1011.8
20240518180052 69 89 3.5 7.0 0.00 0.31 0.31 100 1011.9
20240518174547 69 85 3.5 7.8 0.00 0.31 0.31 100 1011.8
20240518173044 70 85 3.5 6.1 0.00 0.31 0.31 100 1012.2
20240518171541 71 83 3.5 7.8 0.00 0.31 0.31 100 1012.3
20240518170034 71 99 2.6 7.0 0.00 0.31 0.31 100 1012.6
20240518164531 72 73 0.9 4.3 0.00 0.31 0.31 100 1012.5
20240518163026 71 81 2.6 7.0 0.00 0.31 0.31 100 1012.4
20240518161522 70 108 3.5 7.8 0.00 0.31 0.31 100 1012.6
20240518160021 70 87 4.3 8.7 0.00 0.31 0.31 100 1012.6
20240518154514 69 100 4.3 7.8 0.00 0.31 0.31 100 1012.4
20240518153010 67 100 2.6 6.1 0.00 0.31 0.31 100 1012.6
20240518151505 67 116 7.8 12.2 0.00 0.31 0.31 100 1012.5
20240518150100 65 122 6.1 11.3 0.00 0.31 0.31 100 1012.7
20240518144555 65 97 3.5 8.7 0.01 0.31 0.31 100 1012.6
20240518143051 65 122 6.1 9.6 0.01 0.31 0.31 100 1012.6
20240518141547 64 118 2.6 7.0 0.01 0.31 0.31 100 1012.7
20240518140051 63 121 4.3 7.8 0.01 0.31 0.31 100 1013.1
20240518134558 63 106 5.2 8.7 0.00 0.30 0.30 100 1013.1
20240518133039 62 129 6.1 11.3 0.00 0.30 0.30 100 1013.2
20240518131537 62 127 6.1 11.3 0.00 0.30 0.30 100 1013.6
20240518130026 61 99 6.1 9.6 0.00 0.30 0.30 100 1013.7
20240518124521 61 111 6.1 8.7 0.05 0.30 0.30 100 1013.7
20240518123017 60 106 2.6 6.1 0.08 0.30 0.30 100 1014.0
20240518121528 60 106 2.6 6.1 0.08 0.30 0.30 100 1013.9
20240518120009 60 120 2.6 7.0 0.08 0.30 0.30 100 1014.2
20240518114503 60 124 3.5 7.0 0.09 0.25 0.25 100 1013.9
20240518113118 60 135 1.7 3.5 0.09 0.22 0.22 100 1014.0
20240518111555 60 144 0.0 1.7 0.14 0.22 0.22 100 1013.9
20240518110050 59 107 1.7 6.1 0.20 0.22 0.22 100 1013.5
20240518104547 59 127 8.7 13.0 0.15 0.16 0.16 100 1012.4
20240518103042 59 104 6.1 12.2 0.13 0.13 0.13 100 1012.4
20240518101536 59 95 7.0 9.6 0.08 0.08 0.08 100 1012.8
20240518100032 60 64 5.2 8.7 0.02 0.02 0.02 100 1012.5
20240518094534 60 104 7.0 9.6 0.00 0.00 0.00 100 1012.5
20240518093025 60 104 7.8 11.3 0.00 0.00 0.00 100 1012.5
20240518091530 60 105 6.1 9.6 0.00 0.00 0.00 100 1012.5
20240518090022 60 98 7.0 8.7 0.00 0.00 0.00 100 1012.4
20240518084510 60 103 1.7 6.1 0.00 0.00 0.00 100 1012.6
20240518083012 59 123 2.6 5.2 0.00 0.00 0.00 100 1012.6
20240518081502 59 86 3.5 6.1 0.00 0.00 0.00 100 1012.5
20240518080057 59 79 1.7 6.1 0.00 0.00 0.00 100 1012.8
20240518074554 60 110 1.7 6.1 0.00 0.00 0.00 100 1012.9
20240518073048 60 85 1.7 4.3 0.00 0.00 0.00 100 1013.1
20240518071557 60 94 2.6 4.3 0.00 0.00 0.00 100 1013.2
20240518070042 60 89 1.7 3.5 0.00 0.00 0.00 100 1013.4
20240518064539 60 95 0.0 3.5 0.00 0.00 0.00 100 1013.6
20240518063031 60 152 0.0 0.0 0.00 0.00 0.00 100 1013.6
20240518061527 60 152 0.0 0.0 0.00 0.00 0.00 100 1013.9
20240518060029 60 152 1.7 3.5 0.00 0.00 0.00 100 1014.2
20240518054518 60 152 0.0 1.7 0.00 0.00 0.00 100 1014.5
20240518053021 60 152 0.0 0.0 0.00 0.00 0.00 100 1014.4
20240518051510 60 152 0.0 0.0 0.00 0.00 0.00 100 1014.4
20240518050005 61 152 0.0 0.9 0.00 0.00 0.00 100 1014.3
20240518044500 61 152 0.0 1.7 0.00 0.00 0.00 100 1014.3
20240518043057 61 140 0.0 2.6 0.00 0.00 0.00 100 1014.3
20240518041552 61 104 0.9 2.6 0.00 0.00 0.00 100 1014.4
20240518040048 61 104 0.9 2.6 0.00 0.00 0.00 100 1014.6
20240518034547 61 110 0.0 6.1 0.00 0.00 0.00 100 1014.7
20240518033052 61 103 2.6 4.3 0.00 0.00 0.00 100 1014.6
20240518031535 61 85 0.9 4.3 0.00 0.00 0.00 100 1014.7
20240518030031 61 85 1.7 3.5 0.00 0.00 0.00 100 1014.7
20240518024526 61 87 2.6 6.1 0.00 0.00 0.00 100 1014.5
20240518023032 62 116 2.6 7.0 0.00 0.00 0.00 100 1014.6
20240518021518 62 82 3.5 8.7 0.00 0.00 0.00 100 1014.3
20240518020012 62 101 2.6 8.7 0.00 0.00 0.00 100 1014.5
20240518014508 62 98 2.6 6.1 0.00 0.00 0.00 100 1014.5
20240518013006 62 100 3.5 7.0 0.00 0.00 0.00 100 1014.2
20240518011604 63 102 1.7 6.1 0.00 0.00 0.00 100 1014.2
20240518010055 63 91 2.6 7.0 0.00 0.00 0.00 100 1014.1
20240518004559 63 113 4.3 6.1 0.00 0.00 0.00 100 1014.1
20240518003103 63 100 2.6 4.3 0.00 0.00 0.00 100 1014.1
20240518001600 64 105 2.6 6.1 0.00 0.00 0.00 100 1014.0
20240518000038 64 109 3.5 6.1 0.00 0.00 0.00 100 1014.0
20240517234605 65 77 2.6 7.0 0.00 0.00 0.00 100 1014.0
20240517233029 65 87 1.7 4.3 0.00 0.00 0.00 100 1014.0
20240517231532 65 68 1.7 7.0 0.00 0.00 0.00 100 1013.7
20240517230035 65 98 3.5 7.0 0.00 0.00 0.00 100 1013.6
20240517224516 66 96 5.2 9.6 0.00 0.00 0.00 100 1013.5
20240517223018 66 78 3.5 8.7 0.00 0.00 0.00 100 1013.4
20240517221508 66 100 3.5 8.7 0.00 0.00 0.00 100 1013.1
20240517220004 66 79 3.5 9.6 0.00 0.00 0.00 100 1013.2
20240517214602 66 104 5.2 10.4 0.00 0.00 0.00 100 1013.1
20240517213055 67 77 4.3 9.6 0.00 0.00 0.00 100 1013.0
20240517211559 67 83 4.3 11.3 0.00 0.00 0.00 100 1013.1
20240517210046 68 108 5.2 10.4 0.00 0.00 0.00 100 1013.2
20240517204541 71 97 7.0 9.6 0.00 0.00 0.00 100 1013.5
20240517203037 72 59 0.0 3.5 0.00 0.00 0.00 100 1013.5
20240517201541 72 60 0.9 6.1 0.00 0.00 0.00 100 1013.1
20240517200028 72 107 0.9 6.1 0.00 0.00 0.00 100 1013.3